Miscellaneous Local Product
Issued by NWS Hastings, NE

Home | Current Version | Previous Version | Graphics & Text | Print | Product List | Glossary On
Versions: 1 2 3 4 5 6 7 8 9 10 11 12 13 14 15 16 17 18 19 20 21 22 23 24 25 26 27 28 29 30 31 32 33 34 35 36 37 38 39 40 41 42 43 44 45 46 47 48 49 50
109
AXUS43 KGID 291002
MISGRI

GID CWA HOURLY WEATHER ROUNDUP
NATIONAL WEATHER SERVICE HASTINGS NE
500 AM CDT SUN MAY 29 2016

NOTE: "FAIR" INDICATES FEW OR NO CLOUDS BELOW 12,000 FEET WITH NO
SIGNIFICANT WEATHER AND/OR OBSTRUCTIONS TO VISIBILITY.

...SOUTH CENTRAL NEBRASKA...

CITY           SKY/WX    TMP DP  RH WIND       PRES   REMARKS
GRAND ISLAND   CLEAR     57  55  93 CALM      30.04R
HASTINGS       PTCLDY    56  53  90 CALM      30.03R
KEARNEY        CLOUDY    55  50  82 NW5       30.04R
ORD            CLEAR     53  52  96 S6        30.02R
YORK           CLEAR     57  55  94 CALM      30.02S
AURORA         CLEAR     57  56  97 CALM      30.02S
LEXINGTON      CLEAR     53  50  89 W5        30.05R
HOLDREGE       CLEAR     59  48  66 CALM      30.03R
HEBRON         CLEAR     57  54  91 CALM      30.02R

...NEBRASKA PANHANDLE...

CITY           SKY/WX    TMP DP  RH WIND       PRES   REMARKS
CHADRON        CLEAR     40  37  89 CALM      30.07S
ALLIANCE       CLEAR     39  38  96 CALM      30.08S
SCOTTSBLUFF    CLEAR     47  44  90 E5        30.08S
SIDNEY         CLEAR     43  42  97 W3        30.11R

...WESTERN AND NORTH CENTRAL NEBRASKA...

CITY           SKY/WX    TMP DP  RH WIND       PRES   REMARKS
VALENTINE      CLEAR     49  46  90 SW6       30.05R
AINSWORTH      CLEAR     53  51  94 W5        30.04S
ONEILL         MOCLDY    59  57  92 CALM      30.01F
BROKEN BOW     CLEAR     52  50  93 CALM      30.04R
IMPERIAL       CLEAR     51  49  92 NW3       30.08F
NORTH PLATTE   CLEAR     48  47  96 CALM      30.08R
MCCOOK         PTCLDY    54  49  83 W5        30.06R

...EASTERN NEBRASKA...

CITY           SKY/WX    TMP DP  RH WIND       PRES   REMARKS
NORFOLK        CLOUDY    55  53  93 CALM      30.01R
SO SIOUX CITY  CLEAR     54  52  93 CALM      29.99S
TEKAMAH        CLEAR     53  51  93 CALM      30.00R
COLUMBUS       CLEAR     54  46  76 CALM      30.02S
ALBION         CLOUDY    55  53  91 CALM      30.02R
OMAHA EPPLEY   CLEAR     57  53  86 SE3       30.01R
OFFUTT AFB     PTCLDY    53  53 100 CALM      30.01R
MILLARD        PTCLDY    56  55  95 CALM      30.01R
LINCOLN        PTCLDY    56  54  93 CALM      30.03R
NEBRASKA CITY  CLEAR     60  56  87 CALM      30.01S
BEATRICE       CLEAR     58  56  95 E3        30.02R
FALLS CITY     CLEAR     59  57  93 CALM      30.02R

...NORTHERN KANSAS...

CITY           SKY/WX    TMP DP  RH WIND       PRES   REMARKS
GOODLAND       CLEAR     51  47  86 S3        30.10F
HILL CITY      CLEAR     53  50  89 CALM      30.07S
NORTON         SUNNY     54  48  82 S5        30.05S
PHILLIPSBURG   CLEAR     54  54 100 W3        30.05R
SMITH CENTER   CLEAR     54  52  94 S7        30.05R
BELOIT         CLEAR     57  55  94 SE5       30.04S
HAYS           CLEAR     55  46  71 W6        30.07S
RUSSELL        CLEAR     57  54  89 SW6       30.05R
CONCORDIA      CLEAR     61  54  77 SW7       30.03F
SALINA         CLEAR     59  56  89 CALM      30.05R
TOPEKA         CLEAR     58  56  93 CALM      30.04R



USA.gov is the U.S. government's official web portal to all federal, state and local government web resources and services.